Regional Weather Roundup
Issued by NWS

Home | Current Version | Previous Version | Graphics & Text | Print | Product List | Glossary On
Versions: 1 2 3 4 5 6 7 8 9 10 11 12 13 14 15 16 17 18 19 20 21 22 23 24 25 26 27 28 29 30 31 32 33 34 35 36 37 38 39 40 41 42 43 44 45 46 47 48 49 50
000
ASUS44 KMEG 211610
RWRTN
TENNESSEE HOURLY STATE WEATHER ROUNDUP
NATIONAL WEATHER SERVICE MEMPHIS TN
1000 AM CST WED FEB 21 2018

TNZ002-004-019-021-049-052-054-088>092-211700-
WEST TENNESSEE

CITY           SKY/WX    TMP DP  RH WIND       PRES   REMARKS
MEMPHIS INTL   LGT RAIN  47  46  97 NE9       30.34F
NWS MEMPHIS      N/A     47 N/A N/A MISG        N/A
JACKSON        LGT RAIN  48  47  96 N15       30.38R
DYERSBURG      LGT RAIN  42  40  92 NE14      30.41S
SOMERVILLE     CLOUDY    48  48 100 N10G16    30.35R
COVINGTON      PTSUNNY   45  43  93 NE13      30.37F
UNION CITY     MOSUNNY   41  39  93 N15       30.42R FOG
BOLIVAR        PTSUNNY   52  50  93 NW8G15    30.34S FOG
PARIS          PTSUNNY   45  43  93 N8G16     30.40R
LEXINGTON      CLOUDY    57  55  94 N8G18     30.34R
SAVANNAH       PTSUNNY   59  57  94 N9G18     30.33R FOG
$$

TNZ008-025-027-028-033-062-065-066-211700-
NORTH MIDDLE TENNESSEE

CITY           SKY/WX    TMP DP  RH WIND       PRES   REMARKS
NASHVILLE      CLOUDY    61  55  81 N14       30.33R
PORTLAND       CLOUDY    57  55  94 N6        30.35S
CLARKSVILLE    LGT RAIN  46  43  89 N14       30.39S
SMYRNA         CLOUDY    74  65  73 S8        30.30S
COOKEVILLE     CLOUDY    72  63  73 SW13G23   30.33R
GALLATIN       CLOUDY    59  57  94 N20G25    30.35R FOG
CROSSVILLE     CLOUDY    67  61  81 S10G21    30.38R
$$

TNZ061-075-076-078-094-096-097-211700-
SOUTH MIDDLE TENNESSEE

CITY           SKY/WX    TMP DP  RH WIND       PRES   REMARKS
FAYETTEVILLE   CLOUDY    68  66  94 S12       30.33S
TULLAHOMA      CLOUDY    72  64  78 S16G25    30.33S
WINCHESTER     CLOUDY    68  64  88 S8        30.35S
MCMINNVILLE    PTSUNNY   72  63  73 SW12G26   30.33S
COLUMBIA       CLOUDY    72  68  88 S14G22    30.27S
SHELBYVILLE    CLOUDY    72  64  78 S17       30.32R
$$

TNZ017-018-042-046-047-211700-
NORTHEAST TENNESSEE

CITY           SKY/WX    TMP DP  RH WIND       PRES   REMARKS
TRI CITIES     FAIR      74  60  61 SW5       30.39S
ELIZABETHTON   PTSUNNY   72  59  64 CALM      30.40F
$$

TNZ012-013-036-069-073-074-211700-
CENTRAL EAST TENNESSEE

CITY           SKY/WX    TMP DP  RH WIND       PRES   REMARKS
KNOXVILLE      PTSUNNY   75  66  73 SW15      30.36S
OAK RIDGE      CLOUDY    71  66  84 S10       30.37S
DOWNTOWN KNOXV PTSUNNY   72  66  83 SW8G15    30.37F
GATLINBURG     CLOUDY    72  64  78 NW5       30.38R
MORRISTOWN     PTSUNNY   70  63  78 VRB5      30.39R
JACKSBORO      CLOUDY    72  63  73 SW8       30.40S
$$

TNZ083-085-099-211700-
SOUTHEAST TENNESSEE

CITY           SKY/WX    TMP DP  RH WIND       PRES   REMARKS
CHATTANOOGA    PTSUNNY   73  63  70 S14       30.38S
$$

SKY/WX REPORTED AS FAIR MEANS FEW OR NO CLOUDS BELOW
12 THOUSAND FEET.





USA.gov is the U.S. government's official web portal to all federal, state and local government web resources and services.